H1 CPF 2 NER 2022 3 11 9 070 01 glonass128 H2 1106401 9128 37867 2022 3 11 0 0 0 2022 3 14 23 45 0 900 1 1 0 0 0 1 H9 10 0 59649 0.00000 0 -70745.522 -13799130.901 -21418376.585 10 0 59649 900.00000 0 1706941.200 -15652674.641 -20039281.277 10 0 59649 1800.00000 0 3216486.328 -17484398.038 -18269940.509 10 0 59649 2700.00000 0 4442062.354 -19230433.123 -16145074.797 10 0 59649 3600.00000 0 5380582.778 -20827033.876 -13706276.444 10 0 59649 4500.00000 0 6041548.391 -22213201.011 -11001178.015 10 0 59649 5400.00000 0 6446362.829 -23333204.087 -8082507.505 10 0 59649 6300.00000 0 6627149.849 -24138895.688 -5007049.914 10 0 59649 7200.00000 0 6625125.381 -24591721.664 -1834536.483 10 0 59649 8100.00000 0 6488595.706 -24664344.780 1373516.193 10 0 59649 9000.00000 0 6270668.122 -24341815.687 4554994.496 10 0 59649 9900.00000 0 6026771.713 -23622244.213 7648380.665 10 0 59649 10800.00000 0 5812093.038 -22516944.956 10593927.935 10 0 59649 11700.00000 0 5679034.294 -21050052.740 13334796.419 10 0 59649 12600.00000 0 5674799.853 -19257625.201 15818129.282 10 0 59649 13500.00000 0 5839211.263 -17186270.428 17996050.435 10 0 59649 14400.00000 0 6202840.921 -14891356.495 19826566.554 10 0 59649 15300.00000 0 6785541.410 -12434876.342 21274358.111 10 0 59649 16200.00000 0 7595431.171 -9883054.911 22311446.123 10 0 59649 17100.00000 0 8628378.811 -7303795.432 22917723.395 10 0 59649 18000.00000 0 9868008.123 -4764068.190 23081341.052 10 0 59649 18900.00000 0 11286225.085 -2327347.171 22798943.442 10 0 59649 19800.00000 0 12844247.014 -51198.268 22075746.584 10 0 59649 20700.00000 0 14494093.721 2014883.008 20925457.731 10 0 59649 21600.00000 0 16180481.577 3831296.141 19370035.972 10 0 59649 22500.00000 0 17843044.556 5369747.449 17439296.332 10 0 59649 23400.00000 0 19418792.312 6614190.356 15170362.527 10 0 59649 24300.00000 0 20844704.711 7561254.175 12606976.317 10 0 59649 25200.00000 0 22060355.563 8220142.278 9798674.235 10 0 59649 26100.00000 0 23010455.899 8612002.350 6799845.510 10 0 59649 27000.00000 0 23647209.294 8768793.675 3668687.753 10 0 59649 27900.00000 0 23932378.592 8731697.879 466079.700 10 0 59649 28800.00000 0 23838974.552 8549139.377 -2745607.219 10 0 59649 29700.00000 0 23352492.366 8274499.153 -5903734.798 10 0 59649 30600.00000 0 22471640.761 7963619.334 -8946636.347 10 0 59649 31500.00000 0 21208530.017 7672205.745 -11814841.269 10 0 59649 32400.00000 0 19588308.428 7453240.712 -14452259.897 10 0 59649 33300.00000 0 17648260.720 7354518.408 -16807303.086 10 0 59649 34200.00000 0 15436405.426 7416410.019 -18833912.332 10 0 59649 35100.00000 0 13009650.057 7669956.183 -20492478.292 10 0 59649 36000.00000 0 10431582.167 8135369.870 -21750628.162 10 0 59649 36900.00000 0 7769990.250 8821014.907 -22583865.360 10 0 59649 37800.00000 0 5094219.815 9722904.487 -22976048.562 10 0 59649 38700.00000 0 2472476.814 10824741.269 -22919700.766 10 0 59649 39600.00000 0 -30807.494 12098497.042 -22416142.942 10 0 59649 40500.00000 0 -2357439.449 13505506.620 -21475450.698 10 0 59649 41400.00000 0 -4457650.830 14998028.504 -20116236.182 10 0 59649 42300.00000 0 -6291921.007 16521204.974 -18365261.134 10 0 59649 43200.00000 0 -7832359.082 18015337.494 -16256890.371 10 0 59649 44100.00000 0 -9063590.766 19418380.245 -13832398.136 10 0 59649 45000.00000 0 -9983115.992 20668545.839 -11139142.609 10 0 59649 45900.00000 0 -10601125.965 21706913.053 -8229626.174 10 0 59649 46800.00000 0 -10939791.030 22479927.004 -5160461.085 10 0 59649 47700.00000 0 -11032052.881 22941687.296 -1991261.705 10 0 59649 48600.00000 0 -10919975.054 23055929.172 1216514.501 10 0 59649 49500.00000 0 -10652723.702 22797616.092 4400754.536 10 0 59649 50400.00000 0 -10284265.290 22154078.750 7499883.130 10 0 59649 51300.00000 0 -9870879.073 21125654.636 10454039.306 10 0 59649 52200.00000 0 -9468589.006 19725803.035 13206214.723 10 0 59649 53100.00000 0 -9130622.373 17980691.895 15703333.274 10 0 59649 54000.00000 0 -8905000.688 15928274.412 17897253.036 10 0 59649 54900.00000 0 -8832362.377 13616893.701 19745673.363 10 0 59649 55800.00000 0 -8944106.987 11103472.737 21212931.633 10 0 59649 56700.00000 0 -9260937.285 8451363.101 22270676.333 10 0 59649 57600.00000 0 -9791859.466 5727939.503 22898405.100 10 0 59649 58500.00000 0 -10533683.100 3002037.119 23083858.455 10 0 59649 59400.00000 0 -11471042.448 341334.990 22823262.180 10 0 59649 60300.00000 0 -12576939.752 -2190209.024 22121413.441 10 0 59649 61200.00000 0 -13813790.012 -4534767.875 20991608.090 10 0 59649 62100.00000 0 -15134926.352 -6642801.614 19455408.976 10 0 59649 63000.00000 0 -16486506.040 -8474872.041 17542257.592 10 0 59649 63900.00000 0 -17809740.263 -10003040.645 15288934.089 10 0 59649 64800.00000 0 -19043356.787 -11211791.243 12738873.463 10 0 59649 65700.00000 0 -20126194.001 -12098437.858 9941348.528 10 0 59649 66600.00000 0 -20999818.253 -12672999.219 6950533.372 10 0 59649 67500.00000 0 -21611054.264 -12957543.616 3824463.696 10 0 59649 68400.00000 0 -21914320.880 -12985030.096 623913.203 10 0 59649 69300.00000 0 -21873671.596 -12797693.710 -2588792.313 10 0 59649 70200.00000 0 -21464450.977 -12445042.431 -5750999.567 10 0 59649 71100.00000 0 -20674493.879 -11981550.644 -8800966.043 10 0 59649 72000.00000 0 -19504813.630 -11464147.812 -11679085.835 10 0 59649 72900.00000 0 -17969747.144 -10949610.398 -14329077.013 10 0 59649 73800.00000 0 -16096548.437 -10491969.802 -16699104.981 10 0 59649 74700.00000 0 -13924446.023 -10140048.724 -18742817.509 10 0 59649 75600.00000 0 -11503203.030 -9935232.939 -20420269.199 10 0 59649 76500.00000 0 -8891240.506 -9909575.228 -21698715.705 10 0 59649 77400.00000 0 -6153403.441 -10084313.610 -22553261.003 10 0 59649 78300.00000 0 -3358464.251 -10468867.802 -22967344.576 10 0 59649 79200.00000 0 -576469.587 -11060356.859 -22933059.034 10 0 59649 80100.00000 0 2123957.215 -11843658.085 -22451292.479 10 0 59649 81000.00000 0 4678244.408 -12792003.854 -21531693.902 10 0 59649 81900.00000 0 7028320.745 -13868089.691 -20192463.614 10 0 59649 82800.00000 0 9124783.055 -15025645.092 -18459974.432 10 0 59649 83700.00000 0 10928693.200 -16211398.946 -16368232.769 10 0 59649 84600.00000 0 12412931.416 -17367354.922 -13958191.881 10 0 59649 85500.00000 0 13563052.093 -18433279.380 -11276932.450 10 0 59650 0.00000 0 14377609.507 -19349295.900 -8376728.282 10 0 59650 900.00000 0 14867943.850 -20058477.083 -5314015.037 10 0 59650 1800.00000 0 15057439.136 -20509323.446 -2148287.120 10 0 59650 2700.00000 0 14980289.058 -20658027.435 1059060.408 10 0 59650 3600.00000 0 14679824.384 -20470427.243 4245918.310 10 0 59650 4500.00000 0 14206474.916 -19923570.441 7350656.711 10 0 59650 5400.00000 0 13615452.987 -19006823.348 10313303.037 10 0 59650 6300.00000 0 12964256.391 -17722481.218 13076682.761 10 0 59650 7200.00000 0 12310095.296 -16085855.008 15587502.365 10 0 59650 8100.00000 0 11707350.176 -14124831.833 17797355.546 10 0 59650 9000.00000 0 11205165.865 -11878927.478 19663635.346 10 0 59650 9900.00000 0 10845280.810 -9397869.772 21150336.638 10 0 59650 10800.00000 0 10660180.725 -6739770.220 22228735.536 10 0 59650 11700.00000 0 10671652.516 -3968957.561 22877934.265 10 0 59650 12600.00000 0 10889798.111 -1153560.472 23085262.122 10 0 59650 13500.00000 0 11312549.360 1637063.503 22846525.363 10 0 59650 14400.00000 0 11925705.000 4334949.399 22166101.039 10 0 59650 15300.00000 0 12703489.682 6876090.813 21056872.083 10 0 59650 16200.00000 0 13609613.852 9202846.459 19540003.372 10 0 59650 17100.00000 0 14598792.788 11266089.127 17644560.957 10 0 59650 18000.00000 0 15618663.882 13027008.526 15406979.365 10 0 59650 18900.00000 0 16612024.375 14458492.996 12870384.631 10 0 59650 19800.00000 0 17519297.619 15546031.753 10083783.537 10 0 59650 20700.00000 0 18281125.465 16288098.514 7101132.611 10 0 59650 21600.00000 0 18840977.950 16695998.823 3980303.139 10 0 59650 22500.00000 0 19147669.594 16793185.751 781961.237 10 0 59650 23400.00000 0 19157674.405 16614071.225 -2431615.477 10 0 59650 24300.00000 0 18837139.346 16202382.163 -5597761.127 10 0 59650 25200.00000 0 18163508.094 15609130.476 -8654659.708 10 0 59650 26100.00000 0 17126683.162 14890283.218 -11542572.133 10 0 59650 27000.00000 0 15729674.025 14104232.674 -14205026.079 10 0 59650 27900.00000 0 13988700.961 13309175.332 -16589943.097 10 0 59650 28800.00000 0 11932748.016 12560512.990 -18650678.552 10 0 59650 29700.00000 0 9602582.428 11908388.454 -20346952.072 10 0 59650 30600.00000 0 7049281.052 11395462.483 -21645648.624 10 0 59650 31500.00000 0 4332325.886 11055027.947 -22521473.410 10 0 59650 32400.00000 0 1517349.263 10909542.308 -22957447.205 10 0 59650 33300.00000 0 -1326375.742 10969641.063 -22945232.493 10 0 59650 34200.00000 0 -4128593.370 11233673.653 -22485284.523 10 0 59650 35100.00000 0 -6820759.567 11687780.534 -21586825.381 10 0 59650 36000.00000 0 -9338659.472 12306506.616 -20267642.910 10 0 59650 36900.00000 0 -11624838.579 13053923.200 -18553720.020 10 0 59650 37800.00000 0 -13630746.760 13885208.873 -16478703.392 10 0 59650 38700.00000 0 -15318507.087 14748620.439 -14083223.664 10 0 59650 39600.00000 0 -16662237.685 15587768.729 -11414082.149 10 0 59650 40500.00000 0 -17648874.257 16344101.720 -8523321.477 10 0 59650 41400.00000 0 -18278462.142 16959489.159 -5467199.585 10 0 59650 42300.00000 0 -18563909.185 17378799.299 -2305088.136 10 0 59650 43200.00000 0 -18530213.252 17552359.333 901682.545 10 0 59650 44100.00000 0 -18213199.966 17438196.667 4091009.370 10 0 59650 45000.00000 0 -17657826.169 17003967.938 7201210.289 10 0 59650 45900.00000 0 -16916122.222 16228496.149 10172203.602 10 0 59650 46800.00000 0 -16044860.469 15102852.886 12946651.079 10 0 59650 47700.00000 0 -15103047.800 13630941.610 15471044.258 10 0 59650 48600.00000 0 -14149346.793 11829558.485 17696714.860 10 0 59650 49500.00000 0 -13239532.118 9727928.449 19580751.900 10 0 59650 50400.00000 0 -12424086.955 7366735.459 21086809.855 10 0 59650 51300.00000 0 -11746038.037 4796685.982 22185794.337 10 0 59650 52200.00000 0 -11239118.012 2076663.385 22856413.744 10 0 59650 53100.00000 0 -10926330.511 -728452.750 23085587.376 10 0 59650 54000.00000 0 -10818977.060 -3550215.092 22868702.805 10 0 59650 54900.00000 0 -10916186.433 -6319187.408 22209717.376 10 0 59650 55800.00000 0 -11204966.892 -8967569.986 21121101.048 10 0 59650 56700.00000 0 -11660780.631 -11431765.556 19623620.183 10 0 59650 57600.00000 0 -12248618.482 -13654781.351 17745964.362 10 0 59650 58500.00000 0 -12924532.279 -15588368.735 15524220.976 10 0 59650 59400.00000 0 -13637563.062 -17194811.788 13001205.148 10 0 59650 60300.00000 0 -14331986.287 -18448289.858 10225655.285 10 0 59650 61200.00000 0 -14949781.147 -19335755.896 7251307.677 10 0 59650 62100.00000 0 -15433220.721 -19857292.154 4135866.259 10 0 59650 63000.00000 0 -15727473.460 -20025926.418 939886.418 10 0 59650 63900.00000 0 -15783104.907 -19866914.608 -2274405.697 10 0 59650 64800.00000 0 -15558371.784 -19416518.539 -5444334.985 10 0 59650 65700.00000 0 -15021208.593 -18720329.499 -8508015.381 10 0 59650 66600.00000 0 -14150819.404 -17831208.309 -11405578.024 10 0 59650 67500.00000 0 -12938804.154 -16806929.603 -14080363.526 10 0 59650 68400.00000 0 -11389768.615 -15707631.290 -16480052.734 10 0 59650 69300.00000 0 -9521389.592 -14593179.026 -18557711.477 10 0 59650 70200.00000 0 -7363930.539 -13520559.360 -20272726.871 10 0 59650 71100.00000 0 -4959226.721 -12541414.013 -21591615.179 10 0 59650 72000.00000 0 -2359182.198 -11699821.489 -22488684.228 10 0 59650 72900.00000 0 376158.026 -11030421.212 -22946536.877 10 0 59650 73800.00000 0 3180879.112 -10556960.120 -22956405.657 10 0 59650 74700.00000 0 5985714.471 -10291323.099 -22518312.567 10 0 59650 75600.00000 0 8720704.416 -10233087.276 -21641051.873 10 0 59650 76500.00000 0 11317883.383 -10369617.460 -20341997.568 10 0 59650 77400.00000 0 13713882.882 -10676696.565 -18646740.879 10 0 59650 78300.00000 0 15852341.691 -11119661.939 -16588566.590 10 0 59650 79200.00000 0 17686023.481 -11654997.036 -14207780.207 10 0 59650 80100.00000 0 19178554.973 -12232308.794 -11550900.815 10 0 59650 81000.00000 0 20305714.284 -12796605.063 -8669736.967 10 0 59650 81900.00000 0 21056218.479 -13290774.352 -5620364.903 10 0 59650 82800.00000 0 21431980.508 -13658162.175 -2462030.172 10 0 59650 83700.00000 0 21447828.170 -13845134.993 744005.364 10 0 59650 84600.00000 0 21130700.031 -13803523.885 3935648.445 10 0 59650 85500.00000 0 20518354.796 -13492845.857 7051168.374 10 0 59651 0.00000 0 19657650.494 -12882210.582 10030377.305 10 0 59651 900.00000 0 18602466.495 -11951833.425 12815776.708 10 0 59651 1800.00000 0 17411357.139 -10694093.491 15353645.318 10 0 59651 2700.00000 0 16145033.397 -9114092.306 17595054.814 10 0 59651 3600.00000 0 14863777.912 -7229690.996 19496791.625 10 0 59651 4500.00000 0 13624899.474 -5071024.015 21022170.779 10 0 59651 5400.00000 0 12480331.301 -2679508.741 22141727.863 10 0 59651 6300.00000 0 11474471.320 -106390.360 22833777.459 10 0 59651 7200.00000 0 10642352.715 2589119.895 23084828.464 10 0 59651 8100.00000 0 10008219.676 5342038.905 22889848.949 10 0 59651 9000.00000 0 9584566.980 8084050.570 22252375.352 10 0 59651 9900.00000 0 9371683.542 10746091.532 21184463.118 10 0 59651 10800.00000 0 9357719.778 13260979.569 19706478.254 10 0 59651 11700.00000 0 9519277.423 15565978.057 17846731.757 10 0 59651 12600.00000 0 9822499.091 17605191.572 15640961.559 10 0 59651 13500.00000 0 10224614.061 19331693.818 13131669.348 10 0 59651 14400.00000 0 10675877.501 20709299.036 10367322.482 10 0 59651 15300.00000 0 11121823.239 21713901.913 7401434.217 10 0 59651 16200.00000 0 11505736.259 22334328.305 4291538.250 10 0 59651 17100.00000 0 11771240.750 22572659.062 1098076.332 10 0 59651 18000.00000 0 11864893.630 22444011.204 -2116779.732 10 0 59651 18900.00000 0 11738672.171 21975783.744 -5290348.383 10 0 59651 19800.00000 0 11352247.939 21206398.518 -8360676.059 10 0 59651 20700.00000 0 10674947.738 20183588.381 -11267766.427 10 0 59651 21600.00000 0 9687315.171 18962305.116 -13954775.020 10 0 59651 22500.00000 0 8382203.387 17602336.209 -16369143.627 10 0 59651 23400.00000 0 6765349.807 16165732.686 -18463649.863 10 0 59651 24300.00000 0 4855406.059 14714158.569 -20197349.350 10 0 59651 25200.00000 0 2683420.071 13306275.976 -21536390.390 10 0 59651 26100.00000 0 291791.204 11995278.234 -22454683.938 10 0 59651 27000.00000 0 -2267257.864 10826676.682 -22934415.188 10 0 59651 27900.00000 0 -4933627.984 9836435.403 -22966386.733 10 0 59651 28800.00000 0 -7641626.492 9049532.762 -22550187.033 10 0 59651 29700.00000 0 -10322489.655 8479009.663 -21694181.921 10 0 59651 30600.00000 0 -12907038.023 8125543.179 -20415330.587 10 0 59651 31500.00000 0 -15328352.793 7977561.366 -18738831.248 10 0 59651 32400.00000 0 -17524361.082 8011891.770 -16697605.166 10 0 59651 33300.00000 0 -19440222.407 8194913.334 -14331630.814 10 0 59651 34200.00000 0 -21030417.546 8484160.217 -11687142.971 10 0 59651 35100.00000 0 -22260454.222 8830307.117 -8815713.906 10 0 59651 36000.00000 0 -23108120.585 9179450.046 -5773235.918 10 0 59651 36900.00000 0 -23564236.777 9475584.630 -2618826.164 10 0 59651 37800.00000 0 -23632876.184 9663176.351 586324.229 10 0 59651 38700.00000 0 -23331050.182 9689714.017 3780134.113 10 0 59651 39600.00000 0 -22687872.381 9508139.208 6900826.442 10 0 59651 40500.00000 0 -21743239.711 9079050.223 9888110.056 10 0 59651 41400.00000 0 -20546087.300 8372589.043 12684327.365 10 0 59651 42300.00000 0 -19152291.001 7369933.358 15235547.149 10 0 59651 43200.00000 0 -17622305.378 6064332.225 17492583.256 10 0 59651 44100.00000 0 -16018635.007 4461642.758 19411921.602 10 0 59651 45000.00000 0 -14403243.237 2580345.599 20956539.628 10 0 59651 45900.00000 0 -12835004.522 451037.943 22096604.497 10 0 59651 46800.00000 0 -11367304.279 -1884576.184 22810038.268 10 0 59651 47700.00000 0 -10045884.125 -4375158.492 23082940.376 10 0 59651 48600.00000 0 -8907020.331 -6961613.478 22909859.968 10 0 59651 49500.00000 0 -7976110.003 -9579295.303 22293912.789 10 0 59651 50400.00000 0 -7266723.261 -12160456.203 21246739.598 10 0 59651 51300.00000 0 -6780161.036 -14636838.094 19788305.493 10 0 59651 52200.00000 0 -6505537.759 -16942302.579 17946541.963 10 0 59651 53100.00000 0 -6420386.951 -19015392.040 15756836.175 10 0 59651 54000.00000 0 -6491766.148 -20801716.488 13261374.741 10 0 59651 54900.00000 0 -6677816.754 -22256066.931 10508352.008 10 0 59651 55800.00000 0 -6929714.990 -23344166.233 7551055.965 10 0 59651 56700.00000 0 -7193933.057 -24043982.764 4446847.613 10 0 59651 57600.00000 0 -7414715.670 -24346549.675 1256052.416 10 0 59651 58500.00000 0 -7536667.019 -24256253.016 -1959214.961 10 0 59651 59400.00000 0 -7507337.527 -23790574.294 -5136269.425 10 0 59651 60300.00000 0 -7279698.747 -22979296.302 -8213092.946 10 0 59651 61200.00000 0 -6814398.888 -21863204.370 -11129564.813 10 0 59651 62100.00000 0 -6081700.172 -20492337.191 -13828658.579 10 0 59651 63000.00000 0 -5063012.618 -18923861.236 -16257580.014 10 0 59651 63900.00000 0 -3751956.206 -17219659.449 -18368821.382 10 0 59651 64800.00000 0 -2154903.681 -15443737.464 -20121109.407 10 0 59651 65700.00000 0 -290978.935 -13659558.606 -21480226.649 10 0 59651 66600.00000 0 1808490.361 -11927421.974 -22419688.948 10 0 59651 67500.00000 0 4101043.461 -10301995.713 -22921265.097 10 0 59651 68400.00000 0 6534635.548 -8830110.470 -22975328.482 10 0 59651 69300.00000 0 9049599.291 -7548906.417 -22581034.259 10 0 59651 70200.00000 0 11580935.720 -6484411.355 -21746319.586 10 0 59651 71100.00000 0 14060837.354 -5650608.489 -20487728.163 10 0 59651 72000.00000 0 16421336.851 -5049031.077 -18830064.097 10 0 59651 72900.00000 0 18596969.675 -4668898.319 -16805883.605 10 0 59651 73800.00000 0 20527339.248 -4487783.653 -14454836.183 10 0 59651 74700.00000 0 22159477.605 -4472784.058 -11822869.917 10 0 59651 75600.00000 0 23449903.972 -4582137.856 -8961317.995 10 0 59651 76500.00000 0 24366296.835 -4767219.952 -5925885.574 10 0 59651 77400.00000 0 24888711.771 -4974828.024 -2775557.915 10 0 59651 78300.00000 0 25010296.733 -5149661.575 428548.303 10 0 59651 79200.00000 0 24737477.624 -5236888.368 3624367.833 10 0 59651 80100.00000 0 24089609.151 -5184689.878 6750081.006 10 0 59651 81000.00000 0 23098107.917 -4946679.010 9745296.615 10 0 59651 81900.00000 0 21805105.938 -4484089.235 12552201.775 10 0 59651 82800.00000 0 20261681.963 -3767644.398 15116657.872 10 0 59651 83700.00000 0 18525744.883 -2779031.915 17389223.335 10 0 59651 84600.00000 0 16659657.002 -1511918.631 19326085.517 10 0 59651 85500.00000 0 14727695.070 27532.625 20889885.776 10 0 59652 0.00000 0 12793453.152 1820667.360 22050423.814 10 0 59652 900.00000 0 10917292.077 3836866.358 22785229.971 10 0 59652 1800.00000 0 9153941.869 6034572.545 23079994.254 10 0 59652 2700.00000 0 7550351.071 8362780.748 22928846.596 10 0 59652 3600.00000 0 6143873.170 10762929.084 22334481.310 10 0 59652 4500.00000 0 4960863.295 13171117.636 21308123.301 10 0 59652 5400.00000 0 4015743.217 15520565.397 19869335.177 10 0 59652 6300.00000 0 3310573.839 17744206.486 18045666.963 10 0 59652 7200.00000 0 2835153.950 19777319.966 15872152.780 10 0 59652 8100.00000 0 2567642.521 21560085.439 13390661.598 10 0 59652 9000.00000 0 2475680.144 23039958.484 10649111.949 10 0 59652 9900.00000 0 2517964.265 24173766.287 7700563.571 10 0 59652 10800.00000 0 2646213.325 24929434.541 4602201.648 10 0 59652 11700.00000 0 2807437.838 25287271.206 1414232.169 10 0 59652 12600.00000 0 2946422.624 25240750.712 -1801290.532 10 0 59652 13500.00000 0 3008314.438 24796763.028 -4981680.943 10 0 59652 14400.00000 0 2941203.823 23975314.675 -8064859.491 10 0 59652 15300.00000 0 2698589.444 22808692.291 -10990583.759 10 0 59652 16200.00000 0 2241617.529 21340122.756 -13701647.679 10 0 59652 17100.00000 0 1540998.299 19621985.869 -16145022.989 10 0 59652 18000.00000 0 578515.012 17713655.320 -18272918.238 10 0 59652 18900.00000 0 -651941.179 15679059.973 -20043732.533 10 0 59652 19800.00000 0 -2143856.771 13584069.730 -21422883.639 10 0 59652 20700.00000 0 -3878125.271 11493817.845 -22383492.925 10 0 59652 21600.00000 0 -5823620.151 9470074.003 -22906913.107 10 0 59652 22500.00000 0 -7938287.529 7568779.948 -22983088.366 10 0 59652 23400.00000 0 -10170712.178 5837851.987 -22610740.215 10 0 59652 24300.00000 0 -12462090.212 4315342.590 -21797376.411 10 0 59652 25200.00000 0 -14748524.526 3028037.390 -20559124.045 10 0 59652 26100.00000 0 -16963545.499 1990544.747 -18920391.620 10 0 59652 27000.00000 0 -19040750.319 1204913.605 -16913368.457 10 0 59652 27900.00000 0 -20916449.776 660792.560 -14577372.947 10 0 59652 28800.00000 0 -22532211.463 336120.078 -11958064.154 10 0 59652 29700.00000 0 -23837193.453 198313.225 -9106533.730 10 0 59652 30600.00000 0 -24790171.841 205901.552 -6078297.181 10 0 59652 31500.00000 0 -25361178.901 310534.391 -2932205.342 10 0 59652 32400.00000 0 -25532685.477 459274.658 270702.077 10 0 59652 33300.00000 0 -25300280.508 597080.916 3468378.240 10 0 59652 34200.00000 0 -24672821.753 669372.368 6598963.339 10 0 59652 35100.00000 0 -23672053.750 624568.678 9601968.593 10 0 59652 36000.00000 0 -22331710.893 416498.349 12419428.230 10 0 59652 36900.00000 0 -20696144.440 6575.432 14996998.562 10 0 59652 37800.00000 0 -18818531.366 -634345.562 17284984.758 10 0 59652 38700.00000 0 -16758739.451 -1524513.175 19239277.549 10 0 59652 39600.00000 0 -14580936.579 -2670281.015 20822183.867 10 0 59652 40500.00000 0 -12351041.972 -4065609.675 22003137.442 10 0 59652 41400.00000 0 -10134123.043 -5692089.781 22759277.440 10 0 59652 42300.00000 0 -7991843.577 -7519486.351 23075885.268 10 0 59652 43200.00000 0 -5980066.637 -9506783.806 22946671.865 10 0 59652 44100.00000 0 -4146709.457 -11603690.832 22373909.990 10 0 59652 45000.00000 0 -2529937.706 -13752545.546 21368408.251 10 0 59652 45900.00000 0 -1156773.064 -15890545.054 19949326.025 10 0 59652 46800.00000 0 -42171.671 -17952209.822 18143830.837 10 0 59652 47700.00000 0 811387.681 -19871982.894 15986602.446 10 0 59652 48600.00000 0 1413787.473 -21586857.661 13519190.583 10 0 59652 49500.00000 0 1786630.888 -23038925.584 10789236.119 10 0 59652 50400.00000 0 1962101.993 -24177737.359 7849568.447 10 0 59652 51300.00000 0 1981373.092 -24962377.775 4757194.644 10 0 59652 52200.00000 0 1892625.218 -25363165.393 1572198.760 10 0 59652 53100.00000 0 1748764.826 -25362903.174 -1643427.800 10 0 59652 54000.00000 0 1604933.489 -24957624.671 -4827001.788 10 0 59652 54900.00000 0 1515917.162 -24156801.521 -7916384.873 10 0 59652 55800.00000 0 1533566.660 -22983000.997 -10851215.755 10 0 59652 56700.00000 0 1704341.266 -21471006.111 -13574111.579 10 0 59652 57600.00000 0 2067082.595 -19666434.207 -16031812.843 10 0 59652 58500.00000 0 2651116.124 -17623911.906 -18176247.036 10 0 59652 59400.00000 0 3474763.795 -15404883.780 -19965488.080 10 0 59652 60300.00000 0 4544333.225 -13075148.014 -21364591.074 10 0 59652 61200.00000 0 5853628.176 -10702224.289 -22346284.657 10 0 59652 62100.00000 0 7384002.233 -8352666.088 -22891506.782 10 0 59652 63000.00000 0 9104953.943 -6089431.673 -22989773.295 10 0 59652 63900.00000 0 10975238.090 -3969425.141 -22639372.478 10 0 59652 64800.00000 0 12944445.595 -2041310.929 -21847382.691 10 0 59652 65700.00000 0 14954984.491 -343692.904 -20629514.023 10 0 59652 66600.00000 0 16944377.345 1096266.938 -19009778.581 10 0 59652 67500.00000 0 18847777.432 2263734.475 -17019997.624 10 0 59652 68400.00000 0 20600597.047 3156559.905 -14699156.868 10 0 59652 69300.00000 0 22141137.061 3785093.034 -12092624.375 10 0 59652 70200.00000 0 23413107.390 4171468.857 -9251247.858 10 0 59652 71100.00000 0 24367933.280 4348397.125 -6230350.383 10 0 59652 72000.00000 0 24966751.806 4357510.160 -3088645.237 10 0 59652 72900.00000 0 25182016.607 4247341.329 112908.200 10 0 59652 73800.00000 0 24998645.647 4071021.484 3312285.004 10 0 59652 74700.00000 0 24414666.134 3883791.681 6447588.737 10 0 59652 75600.00000 0 23441331.802 3740437.503 9458236.437 10 0 59652 76500.00000 0 22102709.515 3692752.709 12286112.643 10 0 59652 77400.00000 0 20434753.905 3787138.057 14876671.513 10 0 59652 78300.00000 0 18483909.377 4062434.969 17179967.551 10 0 59652 79200.00000 0 16305297.739 4548083.595 19151597.122 10 0 59652 80100.00000 0 13960566.096 5262681.230 20753534.615 10 0 59652 81000.00000 0 11515482.922 6213000.643 21954849.214 10 0 59652 81900.00000 0 9037379.963 7393509.153 22732290.249 10 0 59652 82800.00000 0 6592543.638 8786409.087 23070731.122 10 0 59652 83700.00000 0 4243661.397 10362199.355 22963464.061 10 0 59652 84600.00000 0 2047426.338 12080736.867 22412340.091 10 0 59652 85500.00000 0 52397.342 13892756.340 21427750.870 99